Regional Weather Roundup
Issued by NWS

Home | Current Version | Previous Version | Graphics & Text | Print | Product List | Glossary On
Versions: 1 2 3 4 5 6 7 8 9 10 11 12 13 14 15 16 17 18 19 20 21 22 23 24 25 26 27 28 29 30 31 32 33 34 35 36 37 38 39 40 41 42 43 44 45 46 47 48 49 50
000
ASUS45 KCYS 280810
RWRWY

WYOMING REGIONAL WEATHER ROUNDUP
NATIONAL WEATHER SERVICE CHEYENNE WY
200 AM MDT THU MAY 28 2015

NOTE:  "FAIR" INDICATES FEW OR NO CLOUDS BELOW 12,000 FEET
WITH NO SIGNIFICANT WEATHER AND/OR OBSTRUCTIONS TO VISIBILITY.

WYZ001-280900-
YELLOWSTONE NATIONAL PARK

CITY           SKY/WX    TMP DP  RH WIND       PRES   REMARKS
LK YELLOWSTONE   N/A     38  36  92 CALM      30.16F
W YELLOWSTONE  NOT AVBL

$$
WYZ002>013-054>058-071-098>099-280900-
NORTHERN WYOMING

CITY           SKY/WX    TMP DP  RH WIND       PRES   REMARKS
JACKSON        CLOUDY    43  43 100 S8        30.14S
CODY           FAIR      48  45  87 CALM      30.03F
GREYBULL       CLOUDY    58  46  64 W9        29.99R
WORLAND        CLOUDY    54  48  80 NW3       30.02R
SHERIDAN       FAIR      51  49  92 SE5       29.98S
BUFFALO        FAIR      50  45  83 W10       30.01F
GILLETTE       FAIR      51  49  92 S3        29.95F
HULETT         RAIN      54  50  87 SW10      30.02F
NEWCASTLE      FAIR      55  48  76 E3        29.99S

$$
WYZ014>020-022>026-101>103-280900-
CENTRAL WYOMING

CITY           SKY/WX    TMP DP  RH WIND       PRES   REMARKS
BIG PINEY      LGT RAIN  44  40  85 N5        30.17R
PINEDALE       CLOUDY    37  37 100 W5        30.16F WCI  34
DUBOIS         FAIR      37  34  87 NW10      30.10F WCI  30
LANDER         FAIR      48  39  71 CALM      30.03S
RIVERTON       FAIR      48  43  82 W9        30.04F
CASPER         FAIR      50  43  77 W3        30.03S
DOUGLAS        MOCLDY    50  46  86 W8        30.03R

$$
WYZ021-027>030-104>119-280900-
SOUTHERN WYOMING

CITY           SKY/WX    TMP DP  RH WIND       PRES   REMARKS
EVANSTON       FAIR      40  37  89 SW10      30.18F WCI  33
KEMMERER       PTSUNNY   43  37  81 W6        30.18S
FORT BRIDGER   CLOUDY    45  43  93 SW12      30.20S
ROCK SPRINGS   CLOUDY    46  41  82 SW17      30.15F
DIXON          DRIZZLE   50  44  79 SW5       30.18F
RAWLINS        MOCLDY    48  40  73 SW9       30.12F
SARATOGA       FAIR      45  41  87 S6        30.15F
LARAMIE        FAIR      44  38  79 S9        30.14S
CHEYENNE       FAIR      51  50  96 W5        30.11R
TORRINGTON     CLOUDY    55  53  93 E6        30.01F
PINE BLUFFS    CLOUDY    54  52  94 S10       30.07S

$$



USA.gov is the U.S. government's official web portal to all federal, state and local government web resources and services.